Location: Unspecified
(0.0000°N, 0.0000°E)
Time: 11:27:37
(UTC+00:00)

Vanguard 3 - Pass Details

Date: 20 November 2019
Orbit: 508 x 3263 km, 33.3° (Epoch: 07 December)

Event Time Altitude Azimuth Distance (km) Brightness Sun altitude
Rises 10:51:34 0° 245° (WSW) 5,213 11.2 66.3°
Reaches altitude 10° 10:54:31 10° 249° (WSW) 4,525 11.0 66.7°
Maximum altitude 11:08:09 63° 326° (NNW) 3,076 10.8 68.3°
Drops below altitude 10° 11:27:46 10° 44° (NE) 6,193 11.6 69.8°
Sets 11:32:42 0° 48° (NE) 7,156 11.9 70.1°
